Grand Canyon, AZ

12:15 PM MST on April 30, 2017 (GMT -0700)
Grand Canyon National Park

Weather History for KGCN - February, 2014

Change the Weather History Date:

Saturday, February 22, 2014

  Actual Average Record
Temperature  
Mean Temperature 35 °F -  
Max Temperature 55 °F 42 °F 64 °F (2002)
Min Temperature 15 °F 17 °F -4 °F (2013)
Degree Days  
Heating Degree Days 30    
Moisture  
Dew Point 13 °F    
Average Humidity 51    
Maximum Humidity 84    
Minimum Humidity 18    
Precipitation  
Precipitation 0.00 in - - ()
Sea Level Pressure  
Sea Level Pressure 30.01 in    
Wind  
Wind Speed 2 mph (West)    
Max Wind Speed 13 mph    
Max Gust Speed 24 mph    
Visibility 10 miles    
Events      
Averages and records for this station are not official NWS values.
T = Trace of Precipitation, MM = Missing Value Source: NWS Daily Summary

Daily Weather History Graph

Daily Weather History Graph

Search for Another Location

Airport or City:

Trip Planner

Search our weather history database for the weather conditions in past years. The results will help you decide how hot, cold, wet, or windy it might be!

Date:

Astronomy

Feb. 22, 2014 Rise Set
Actual Time 7:07 AM MST 6:17 PM MST
Civil Twilight 6:41 AM MST 6:43 PM MST
Nautical Twilight 6:11 AM MST 7:12 PM MST
Astronomical Twilight 5:42 AM MST 7:42 PM MST
Moon 1:02 AM MST (2/22) 11:35 AM MST (2/22)
Length of Visible Light 12h 01m
Length of Day
11h 09m
Waning Gibbous, 49% of the Moon is Illuminated
Feb 22
Waning Gibbous
Mar 1
New
Mar 8
First Quarter
Mar 16
Full
Mar 23
Last Quarter

Hourly Weather History & Observations

Time (MST) Temp. Windchill Dew Point Humidity Pressure Visibility Wind Dir Wind Speed Gust Speed Precip Events Conditions
12:54 AM 19.9 °F - 12.9 °F 74% 30.00 in 10.0 mi Calm Calm - N/A   Clear
1:54 AM 19.0 °F - 12.0 °F 74% 30.00 in 10.0 mi Calm Calm - N/A   Clear
2:54 AM 18.0 °F - 12.0 °F 78% 29.99 in 10.0 mi Calm Calm - N/A   Clear
3:54 AM 16.0 °F - 10.9 °F 81% 29.98 in 10.0 mi Calm Calm - N/A   Unknown
4:54 AM 17.1 °F - 12.0 °F 81% 29.99 in 10.0 mi Calm Calm - N/A   Clear
5:54 AM 15.1 °F - 10.9 °F 84% 30.02 in 10.0 mi Calm Calm - N/A   Clear
6:54 AM 15.1 °F - 10.9 °F 84% 30.09 in 10.0 mi Calm Calm - N/A   Clear
7:54 AM 19.9 °F - 15.1 °F 81% 30.12 in 10.0 mi Calm Calm - N/A   Unknown
8:54 AM 36.0 °F - 18.0 °F 48% 30.05 in 10.0 mi Calm Calm - N/A   Clear
9:54 AM 46.9 °F - 14.0 °F 27% 30.04 in 10.0 mi SW 5.8 mph - N/A   Clear
10:54 AM 50.0 °F - 12.0 °F 22% 30.04 in 10.0 mi WSW 8.1 mph - N/A   Clear
11:54 AM 53.1 °F - 12.9 °F 20% 30.00 in 10.0 mi WSW 8.1 mph - N/A   Clear
12:54 PM 53.1 °F - 12.9 °F 20% 29.99 in 10.0 mi West 9.2 mph - N/A   Clear
1:54 PM 54.0 °F - 14.0 °F 21% 29.96 in 10.0 mi WSW 12.7 mph 24.2 mph N/A   Clear
2:54 PM 55.0 °F - 14.0 °F 20% 29.94 in 10.0 mi WSW 10.4 mph 18.4 mph N/A   Clear
3:54 PM 55.9 °F - 12.9 °F 18% 29.95 in 10.0 mi WSW 10.4 mph 19.6 mph N/A   Clear
4:54 PM 54.0 °F - 15.1 °F 22% 29.95 in 10.0 mi West 8.1 mph - N/A   Clear
5:54 PM 51.1 °F - 14.0 °F 23% 29.98 in 10.0 mi West 5.8 mph - N/A   Clear
6:54 PM 35.1 °F - 14.0 °F 42% 30.07 in 10.0 mi Calm Calm - N/A   Clear
7:54 PM 26.1 °F 21.9 °F 12.0 °F 55% 30.09 in 10.0 mi ENE 3.5 mph - N/A   Clear
8:54 PM 25.0 °F 20.7 °F 12.9 °F 60% 30.04 in 10.0 mi NE 3.5 mph - N/A   Clear
9:54 PM 23.0 °F - 12.0 °F 63% 30.02 in 10.0 mi Calm Calm - N/A   Clear
10:54 PM 21.9 °F - 12.0 °F 66% 30.02 in 10.0 mi Calm Calm - N/A   Clear
11:54 PM 21.0 °F - 12.0 °F 68% 30.02 in 10.0 mi Calm Calm - N/A   Clear